Zurück zum Katalog

BREEZE-M R/B

AktivHEO
NORAD 33280·ROCKET BODY·🇷🇺 Russia

Gestartet Aug 18, 2008 von Baikonur Cosmodrome

Loading…

Nächste Überflüge (nächste 24 Stunden)

TLE

AktuellSource: Space-Track

Epoche: Sep 10, 2026, 19:34 UTC

1 33280U 08039C   26253.81578757 -.00000202  00000-0  00000-0 0  9997
2 33280  23.1685 352.2551 5961655  15.0752 356.7917  2.01427693132854

Verfolge BREEZE-M R/B in Echtzeit mit AllMySat

Download on the App Store